IU1INZ-13 Weather Reports


Display with metric or nautical units.
time (UTC)temp
F
wind
direction
speed
MPH
gust
MPH
rain 1hr
in
rain 24hr
in
rain mn
in
humidity
%
barometer
mb
20260506204536 58 332 1.0 4.0 0.00 0.84 0.82 76 1010.9
20260506203033 58 15 1.0 3.0 0.00 0.84 0.82 76 1010.8
20260506201535 58 359 0.0 2.0 0.00 0.84 0.82 77 1010.6
20260506200039 58 347 1.0 5.0 0.00 0.84 0.82 77 1010.3
20260506194537 58 37 3.0 6.0 0.00 0.84 0.82 75 1010.0
20260506193032 58 9 3.0 6.0 0.00 0.84 0.82 77 1009.8
20260506191532 59 55 3.0 5.0 0.00 0.84 0.82 78 1009.6
20260506190031 59 38 3.0 7.0 0.00 0.84 0.82 78 1009.2
20260506184530 59 67 3.0 6.0 0.00 0.84 0.82 78 1009.0
20260506183036 59 47 2.0 5.0 0.00 0.84 0.82 78 1008.7
20260506181534 60 61 2.0 7.0 0.00 0.84 0.82 78 1008.3
20260506180039 60 63 7.0 13.0 0.00 0.84 0.82 77 1007.8
20260506174529 61 60 7.0 10.0 0.00 0.84 0.82 75 1007.8
20260506173039 62 63 8.0 13.0 0.00 0.84 0.82 72 1007.7
20260506171534 64 65 10.0 17.0 0.00 0.84 0.82 64 1007.3
20260506170032 65 60 5.0 8.0 0.00 0.84 0.82 64 1007.1
20260506164537 65 59 3.0 7.0 0.00 0.84 0.82 64 1006.9
20260506163030 65 33 6.0 11.0 0.00 0.84 0.82 62 1006.8
20260506161531 66 32 4.0 9.0 0.00 0.84 0.82 59 1006.6
20260506160034 65 6 6.0 14.0 0.00 0.84 0.82 59 1006.6
20260506154542 65 342 7.0 14.0 0.00 0.84 0.82 60 1006.6
20260506153032 65 337 5.0 11.0 0.00 0.84 0.82 61 1006.8
20260506151533 64 354 6.0 11.0 0.00 0.84 0.82 61 1007.0
20260506150029 66 26 7.0 13.0 0.00 0.84 0.82 66 1007.1
20260506144534 67 336 6.0 10.0 0.00 0.84 0.82 67 1006.9
20260506143036 66 354 5.0 10.0 0.00 0.84 0.82 67 1006.9
20260506141532 65 52 3.0 6.0 0.00 0.84 0.82 67 1007.1
20260506140030 66 350 2.0 5.0 0.00 0.84 0.82 65 1007.2
20260506134531 65 68 3.0 5.0 0.00 0.84 0.82 64 1007.3
20260506133033 66 340 4.0 7.0 0.00 0.84 0.82 63 1007.2
20260506131537 67 79 4.0 8.0 0.00 0.84 0.82 62 1007.2
20260506130029 68 120 2.0 5.0 0.00 0.84 0.82 60 1007.3
20260506124538 67 171 3.0 6.0 0.00 0.84 0.82 61 1007.4
20260506123038 67 214 3.0 6.0 0.00 0.84 0.82 61 1007.4
20260506121529 66 172 2.0 5.0 0.00 0.84 0.82 64 1007.3
20260506120055 65 0 2.0 6.0 0.00 0.84 0.82 63 1007.3
20260506114532 63 314 2.0 7.0 0.00 0.84 0.82 69 1007.4
20260506113032 64 49 1.0 6.0 0.00 0.84 0.82 69 1007.5
20260506111531 64 93 2.0 7.0 0.00 0.84 0.82 67 1007.5
20260506110034 63 154 3.0 7.0 0.00 0.84 0.82 67 1007.6
20260506104533 62 129 2.0 7.0 0.00 0.84 0.82 70 1007.6
20260506103035 61 0 1.0 3.0 0.00 0.84 0.82 73 1007.7
20260506101532 59 238 0.0 2.0 0.00 0.84 0.82 77 1007.6
20260506100033 57 321 2.0 4.0 0.00 0.84 0.82 84 1007.7
20260506094536 54 322 2.0 3.0 0.03 0.84 0.82 88 1007.8
20260506093044 54 342 0.0 5.0 0.11 0.84 0.82 91 1008.1
20260506091533 52 317 2.0 5.0 0.22 0.84 0.82 92 1008.2
20260506090033 52 334 3.0 5.0 0.22 0.84 0.82 91 1008.4
20260506084533 51 340 3.0 7.0 0.18 0.79 0.77 91 1008.5
20260506083041 51 323 2.0 4.0 0.14 0.73 0.71 91 1008.5
20260506081534 51 314 2.0 4.0 0.07 0.62 0.60 91 1008.5
20260506073029 51 311 2.0 6.0 0.09 0.59 0.56 92 1008.4
20260506071547 52 321 2.0 3.0 0.10 0.55 0.53 92 1008.5
20260506061535 53 352 0.0 2.0 0.25 0.46 0.42 93 1008.6
20260506044537 53 63 1.0 6.0 0.04 0.40 0.13 93 1009.0
20260506043033 53 47 3.0 6.0 0.03 0.38 0.11 93 1009.0
20260506041538 53 56 2.0 4.0 0.02 0.37 0.09 93 1009.2
20260506040034 53 61 3.0 5.0 0.02 0.37 0.09 93 1009.2
20260506034530 53 65 2.0 6.0 0.01 0.44 0.08 93 1009.1
20260506033035 53 46 2.0 5.0 0.00 0.42 0.07 93 1009.3
20260506031542 54 68 1.0 3.0 0.00 0.42 0.07 93 1009.7
20260506030033 54 73 1.0 3.0 0.00 0.42 0.07 93 1009.8
20260506024534 54 63 2.0 4.0 0.00 0.42 0.07 93 1009.9
20260506023037 54 46 4.0 7.0 0.00 0.42 0.07 93 1010.1
20260506021534 54 63 2.0 4.0 0.00 0.42 0.07 93 1010.2
20260506020032 54 71 2.0 4.0 0.01 0.42 0.07 93 1010.3
20260506014530 54 58 2.0 4.0 0.02 0.41 0.06 93 1010.2
20260506013030 54 59 1.0 4.0 0.04 0.41 0.06 93 1010.4
20260506011530 54 18 2.0 3.0 0.05 0.41 0.06 92 1010.7
20260506010034 54 39 1.0 2.0 0.04 0.40 0.05 92 1011.1
20260506004553 54 60 1.0 3.0 0.03 0.40 0.03 92 1011.2
20260506003032 54 68 1.0 2.0 0.00 0.38 0.01 92 1011.6
20260506001538 54 70 1.0 2.0 0.00 0.37 0.00 92 1011.8
20260506000034 54 74 1.0 2.0 0.00 0.37 0.00 92 1011.9
20260505234602 54 56 1.0 2.0 0.00 0.37 0.00 92 1012.2
20260505233031 54 9 1.0 3.0 0.00 0.37 0.00 92 1012.1
20260505231534 54 18 1.0 4.0 0.00 0.37 0.00 92 1012.2
20260505230035 54 65 1.0 2.0 0.00 0.37 0.00 91 1012.4
20260505224534 54 0 0.0 2.0 0.00 0.37 0.00 91 1012.6
20260505223031 54 0 1.0 3.0 0.00 0.37 0.00 91 1012.5
20260505221533 54 43 1.0 4.0 0.01 0.37 0.00 91 1012.5
20260505220031 54 54 2.0 4.0 0.01 0.37 0.00 91 1012.7
20260505214537 54 27 2.0 3.0 0.00 0.36 0.36 90 1012.8
20260505213033 54 64 0.0 4.0 0.00 0.36 0.36 90 1013.0
20260505211532 55 56 2.0 3.0 0.00 0.35 0.35 89 1013.1
20260505210031 55 54 1.0 3.0 0.00 0.35 0.35 89 1013.2